Regional Weather Roundup
Issued by NWS

Home | Current Version | Previous Version | Graphics & Text | Print | Product List | Glossary On
Versions: 1 2 3 4 5 6 7 8 9 10 11 12 13 14 15 16 17 18 19 20 21 22 23 24 25 26 27 28 29 30 31 32 33 34 35 36 37 38 39 40 41 42 43 44 45 46 47 48 49 50
000
ASUS43 KIND 282309
RWRIN

WEATHER ROUNDUP FOR INDIANA
NATIONAL WEATHER SERVICE INDIANAPOLIS IN
700 PM EDT FRI APR 28 2017

NOTE: "FAIR" INDICATES FEW OR NO CLOUDS BELOW 12,000 FEET WITH NO
SIGNIFICANT WEATHER AND/OR OBSTRUCTIONS TO VISIBILITY.

* - STATION DOES NOT REPORT WEATHER SUCH AS PRECIPITATION OR FOG.

+ - STATION NOT QUALITY CONTROLLED BY THE NATIONAL WEATHER SERVICE.
    USE DATA WITH CAUTION...ESPECIALLY DEWPOINT AND RELATIVE
    HUMIDITY OBSERVATIONS.

INZ001>003-010>013-019-020-290000-
NORTHWEST INDIANA

CITY           SKY/WX    TMP DP  RH WIND       PRES   REMARKS
GARY /AIRPORT/ CLOUDY    52  45  76 NE7       29.89R
KNOX *+        CLOUDY    59  32  36 S10G17    29.89R
LA PORTE +     CLOUDY    59  49  69 SW7       29.90R
MICHIGAN CITY+ CLOUDY    59  46  63 S6        29.89R
MONTICELLO +   LGT RAIN  54  51  90 SE3       29.87R
RENSSELAER +   CLOUDY    57  50  77 SE7       29.89R
VALPARAISO     LGT RAIN  60  53  77 S7        29.89R

$$

LMZ046-743>745-290000-
SOUTHERN LAKE MICHIGAN

STATION/POSITION TIME  TEMP    WIND        PRES    WAVE
                       AIR SEA DIR/SP/G            HT
                 (UTC) (F)     (DEG/KT/KT) (MB)    (FT)
BURNS HARBOR     2240   48      40/  6/  8 1012.5R
MICHIGAN CITY    2240   53     360/  6/  7   N/A
5NW MICH CITY    2300   45 46                N/A     1

$$

INZ004-005-014>016-021>024-290000-
NORTH CENTRAL INDIANA

CITY           SKY/WX    TMP DP  RH WIND       PRES   REMARKS
ELKHART        CLOUDY    59  46  63 S12       29.87R
GOSHEN         CLOUDY    58  48  69 S15       29.89R
LOGANSPORT +   LGT RAIN  54  50  87 E9        29.88F
PERU/GRISSOM   LGT RAIN  54  54 100 E7        29.87R
ROCHESTER +    DRIZZLE   55  52  88 SE8       29.90R
SOUTH BEND     LGT RAIN  59  48  67 S8        29.89R
WARSAW +       CLOUDY    54  48  82 SE6       29.90R

$$

INZ006>009-017-018-025>027-290000-
NORTHEAST INDIANA

CITY           SKY/WX    TMP DP  RH WIND       PRES   REMARKS
ANGOLA *+      CLOUDY    55  45  67 SE9       29.91S
AUBURN +       LGT RAIN  54  50  87 SE3       29.92R
FORT WAYNE     LGT RAIN  55  50  83 SE13      29.91F
HUNTINGTON +   LGT RAIN  54  52  93 SE6       29.90F
KENDALLVILLE + CLOUDY    54  51  88 SE7       29.92R

$$

INZ028-029-035-036-043>045-051>053-290000-
WEST CENTRAL INDIANA

CITY           SKY/WX    TMP DP  RH WIND       PRES   REMARKS
CRAWFORDSVL +  CLOUDY    53  53 100 W10       29.91R
GREENCASTLE +  RAIN      54  54 100 N12G17    29.81R
LAFAYETTE      LGT RAIN  54  53  97 E7        29.85S FOG
TERRE HAUTE    TSTM      57  54  89 E10       29.81R

$$

INZ030>032-037>040-046>048-054>057-064-065-290000-
CENTRAL INDIANA

CITY           SKY/WX    TMP DP  RH WIND       PRES   REMARKS
CP ATTERBURY + CLOUDY    59  55  88 N6        29.84R THUNDER
COLUMBUS       LGT RAIN  59  55  88 E10       29.82F
FISHERS *+     CLOUDY    54  54 100 NW15G21   29.91R
FRANKFORT +    LGT RAIN  57  54  88 E9        29.86R
GREENWOOD *+   CLOUDY    59  55  87 E14       29.83F
INDIANAPOLIS   TSTM      57  54  89 NE25G46   29.79F SQUALL  FOG
-EAGLE CREEK   TSTM      56  53  90 NE10G29   29.85R FOG
KOKOMO +       LGT RAIN  55  52  89 E10       29.88  FOG
MARION +       LGT RAIN  55  52  88 E14       29.87F
MT COMFORT *+  CLOUDY    55  54  94 NE12G18   29.90R
SHELBYVILLE    TSTM      61  53  75 NE10      29.84R
ZIONSVILLE +   TSTM      54  52  93 SE20G26   29.85F

$$

INZ033-034-041-042-049-050-058-059-290000-
EAST CENTRAL INDIANA

CITY           SKY/WX    TMP DP  RH WIND       PRES   REMARKS
MUNCIE         LGT RAIN  57  52  83 E10       29.92F
RICHMOND +     RAIN      55  54  94 NW20      29.97R

$$

INZ060-061-067>069-081>083-085>088-290000-
SOUTHWEST INDIANA

CITY           SKY/WX    TMP DP  RH WIND       PRES   REMARKS
EVANSVILLE     PTSUNNY   75  67  76 S16G25    29.79S
WASHINGTON +   CLOUDY    69  61  76 S16       29.78R

$$

INZ062-063-066-070>080-084-089>092-290000-
SOUTH CENTRAL AND SOUTHEAST INDIANA

CITY           SKY/WX    TMP DP  RH WIND       PRES   REMARKS
BEDFORD +      CLOUDY    66  59  77 SE13G20   29.72F
BLOOMINGTON    TSTM      59  55  87 N22G36    29.82R FOG
MADISON *+     CLOUDY    68  61  77 CALM      29.85F
NORTH VERNON + LGT RAIN  64  57  77 SE5       29.83F
SEYMOUR +      TSTM      68  59  73 SE6       29.81F

$$




USA.gov is the U.S. government's official web portal to all federal, state and local government web resources and services.